Location: Lansingburgh
(42.7845°N, 73.6696°W)
Time: 18:40:06
(UTC+00:00)

Cosmos 2221 - Pass Details

Date: 24 January 2020
Orbit: 593 x 616 km, 82.5° (Epoch: 25 February)

Event Time Altitude Azimuth Distance (km) Brightness Sun altitude
Rises 23:48:18 0° 355° (N) 2,845 5.9 -20.3°
Reaches altitude 10° 23:50:33 10° 360° (N) 1,940 5.0 -20.8°
Enters shadow 23:53:06 33° 16° (NNE) 1,010 3.4 -21.2°
